Torna al catalogo

STARLINK-31529

AttivoComunicazioniVLEO
NORAD 59000·PAYLOAD·🇺🇸 United States

Lanciato Feb 23, 2024 da Vandenberg Space Force Base

Loading…

Prossimi Passaggi (prossime 24 ore)

TLE

AggiornatoSource: CelesTrak SupGP

Epoca: Sep 15, 2026, 02:04 UTC

1 59000C 24036C   26258.08659722  .00006484  00000+0  19154-3 0  2583
2 59000  53.1575 274.7132 0001278  94.0324 238.1588 15.34392199    10

Traccia STARLINK-31529 in tempo reale con AllMySat

Download on the App Store